Temperature
7 6 6 5 4 4 3 2 1 -1 -1 -0 0 -0 -1 -2 -2 -2 -3 -3 -3 -4 -4 -5 -5 -5 -6 -5 -5 -5 -5 -4 -4 -4 -4 -3 -3 -3
6 5 5 4 3 3 2 1 -0 -1 -3 -2 -2 -2 -2 -2 -3 -4 -4 -4 -4 -4 -5 -6 -6 -6 -6 -6 -6 -5 -5 -5 -5 -4 -4 -4 -3 -3
5 4 4 3 2 2 1 0 -1 -2 -3 -3 -3 -3 -3 -3 -3 -4 -4 -5 -5 -5 -5 -6 -6 -6 -6 -6 -6 -6 -6 -6 -5 -5 -5 -4 -4 -4
3 3 2 2 1 1 0 -1 -1 -2 -3 -4 -4 -4 -4 -4 -5 -5 -5 -6 -6 -5 -6 -6 -6 -6 -6 -6 -6 -6 -6 -6 -6 -6 -6 -5 -5 -5
2 2 1 0 0 -0 -1 -2 -2 -3 -4 -5 -6 -6 -6 -6 -6 -6 -7 -6 -6 -6 -6 -6 -6 -6 -6 -6 -6 -6 -6 -6 -6 -6 -6 -6 -6 -5
1 0 -0 -1 -1 -2 -2 -3 -4 -5 -6 -6 -7 -7 -7 -7 -7 -8 -8 -7 -7 -6 -6 -6 -6 -6 -6 -6 -6 -6 -6 -6 -6 -6 -6 -6 -6 -6
-0 -1 -1 -1 -2 -3 -4 -5 -6 -6 -7 -7 -8 -8 -8 -8 -8 -8 -9 -8 -7 -6 -6 -6 -6 -6 -5 -5 -6 -6 -6 -6 -7 -7 -7 -7 -6 -6
-1 -1 -2 -2 -3 -3 -5 -6 -7 -7 -8 -8 -8 -9 -9 -8 -9 -9 -9 -9 -9 -8 -8 -8 -7 -7 -6 -6 -6 -6 -7 -7 -7 -7 -7 -7 -7 -6
-2 -2 -2 -3 -4 -5 -5 -6 -7 -8 -8 -9 -9 -9 -9 -9 -9 -9 -9 -9 -9 -8 -8 -8 -7 -7 -6 -7 -6 -7 -6 -6 -7 -7 -7 -7 -7 -7
-2 -3 -4 -4 -5 -6 -7 -8 -8 -8 -8 -8 -9 -9 -9 -9 -9 -9 -9 -9 -9 -7 -8 -9 -7 -7 -7 -7 -6 -6 -6 -6 -6 -7 -7 -7 -7 -7
-3 -4 -5 -6 -6 -7 -9 -9 -9 -8 -8 -9 -9 -9 -9 -9 -9 -9 -9 -9 -10 -8 -8 -9 -8 -8 -8 -6 -5 -6 -6 -6 -6 -6 -6 -7 -7 -7
-4 -5 -6 -7 -8 -9 -9 -9 -9 -9 -9 -9 -8 -8 -8 -8 -8 -8 -9 -10 -10 -10 -8 -9 -9 -10 -10 -8 -6 -6 -6 -6 -6 -6 -6 -6 -6 -7
-6 -6 -6 -7 -8 -9 -9 -9 -9 -9 -9 -9 -8 -8 -7 -7 -7 -7 -8 -9 -10 -10 -8 -10 -10 -10 -11 -10 -8 -6 -6 -6 -6 -6 -5 -6 -6 -7
-8 -7 -8 -9 -9 -9 -9 -9 -9 -9 -9 -9 -8 -8 -8 -7 -7 -7 -7 -8 -8 -8 -8 -8 -9 -10 -11 -11 -10 -7 -6 -6 -6 -6 -6 -6 -6 -6
-9 -9 -9 -10 -10 -9 -9 -9 -9 -9 -9 -8 -8 -8 -8 -7 -7 -7 -7 -7 -7 -7 -7 -8 -9 -9 -10 -11 -10 -8 -7 -6 -6 -6 -6 -7 -6 -6
-9 -9 -9 -9 -9 -9 -9 -9 -9 -9 -9 -9 -8 -8 -8 -8 -8 -8 -8 -8 -8 -7 -6 -7 -8 -9 -9 -9 -10 -9 -7 -8 -7 -7 -7 -7 -6 -6
-10 -9 -9 -9 -9 -8 -8 -8 -8 -8 -8 -8 -8 -8 -8 -8 -8 -8 -8 -8 -8 -8 -7 -6 -7 -8 -8 -9 -9 -8 -7 -7 -7 -7 -8 -8 -7 -7
-10 -9 -9 -9 -9 -9 -9 -8 -8 -8 -8 -8 -8 -8 -8 -8 -8 -8 -8 -8 -8 -8 -7 -7 -7 -8 -8 -8 -8 -8 -8 -8 -7 -8 -8 -8 -8 -7
-10 -10 -9 -9 -9 -9 -9 -9 -8 -8 -8 -8 -8 -8 -8 -8 -8 -8 -8 -8 -8 -8 -8 -8 -8 -9 -10 -10 -8 -8 -8 -8 -8 -8 -8 -8 -8 -7
-10 -10 -10 -9 -9 -9 -9 -9 -8 -8 -8 -8 -8 -8 -8 -8 -8 -8 -8 -8 -9 -8 -8 -7 -8 -8 -9 -9 -9 -7 -6 -7 -8 -8 -7 -7 -7 -6
-10 -10 -10 -9 -9 -9 -9 -8 -8 -8 -8 -8 -8 -8 -8 -8 -8 -8 -8 -8 -8 -9 -9 -8 -7 -8 -8 -8 -8 -8 -6 -6 -7 -7 -7 -7 -7 -6
-10 -9 -9 -9 -9 -9 -8 -8 -8 -8 -8 -8 -8 -8 -8 -8 -8 -8 -8 -8 -8 -8 -8 -8 -7 -7 -8 -8 -8 -8 -6 -5 -5 -5 -6 -6 -6 -6
-10 -9 -9 -9 -9 -8 -8 -8 -8 -8 -8 -8 -8 -7 -7 -7 -7 -8 -8 -8 -8 -8 -8 -8 -7 -7 -7 -8 -8 -8 -7 -6 -6 -5 -5 -5 -5 -5
Wind_Speed
5 4 3 3 3 3 3 4 4 3 3 4 3 2 8 13 16 16 15 22 26 26 26 26 26 26 26 27 27 28 28 28 28 28 29 30 30 31
4 5 3 2 3 3 3 3 4 5 4 4 5 4 9 13 17 17 19 24 24 25 25 25 26 27 27 28 28 28 27 28 29 29 30 30 30 31
4 4 3 3 3 3 3 3 4 4 6 5 4 4 6 8 13 16 18 18 19 23 25 27 27 27 28 28 28 28 28 29 29 29 30 30 30 30
3 2 2 2 3 3 3 4 4 5 6 8 5 4 7 8 8 9 15 17 17 23 26 26 27 28 28 28 28 29 28 29 29 29 30 30 30 30
2 0 2 3 4 4 5 5 5 6 6 6 7 5 5 7 8 10 10 11 17 20 24 25 26 27 28 28 28 28 29 29 29 29 29 29 29 30
2 1 3 4 6 6 5 7 6 6 6 6 7 7 6 7 7 8 11 7 10 14 20 23 25 25 26 28 29 29 29 30 29 29 29 29 30 30
2 3 4 6 7 7 6 6 6 5 5 6 7 8 8 7 8 8 13 11 10 11 10 9 11 11 16 24 26 28 29 29 30 30 30 31 31 30
3 4 5 6 8 10 12 13 12 8 6 6 7 10 11 10 9 11 12 14 11 4 7 11 10 12 10 12 24 29 30 31 31 32 31 31 30 30
3 4 4 5 8 6 10 14 13 16 16 11 11 11 13 12 13 14 12 14 15 10 12 16 10 13 11 18 27 30 32 32 31 30 29 28 28 27
2 3 4 5 7 9 7 7 7 8 12 10 10 12 12 12 12 13 13 13 12 11 9 13 13 13 13 9 26 30 31 29 28 27 27 27 28 28
4 4 5 6 13 15 9 7 8 9 15 20 21 20 23 23 18 10 9 11 15 12 7 6 7 10 11 13 16 23 24 25 27 28 29 29 28 27
4 5 8 11 15 16 9 8 10 10 10 11 12 15 13 15 19 9 7 10 12 9 4 4 6 7 8 5 7 9 14 23 28 28 28 28 27 18
4 4 6 15 17 17 16 8 13 14 7 7 8 10 9 8 8 6 6 9 12 11 8 6 9 7 8 9 7 9 12 13 13 17 23 27 26 21
4 5 7 17 18 18 14 15 19 15 6 8 9 9 9 10 10 10 10 10 13 16 15 12 12 12 13 16 13 9 9 11 13 15 13 20 21 23
6 12 15 17 16 11 14 17 13 7 7 8 9 10 8 9 10 10 10 10 13 15 16 13 14 13 13 15 14 15 15 13 13 12 10 10 11 12
7 9 13 13 11 12 11 9 7 7 8 8 10 11 10 9 10 9 11 11 12 13 10 11 12 14 14 16 16 18 16 12 10 13 14 14 13 13
6 3 4 5 6 6 6 6 6 7 8 8 10 11 11 11 11 9 8 9 11 13 16 12 8 11 15 16 17 18 17 16 15 14 14 16 14 13
6 4 6 6 7 8 9 9 9 8 8 9 10 10 11 11 12 11 9 11 12 14 14 14 13 14 11 10 18 18 16 15 14 14 15 17 18 12
4 5 6 6 7 7 7 8 10 9 9 9 10 10 11 11 11 12 12 12 13 13 14 13 13 13 16 18 9 14 14 16 16 15 14 15 18 15
4 5 6 7 7 8 8 9 10 10 9 9 10 11 10 11 12 12 12 13 14 15 15 13 11 12 14 17 16 15 16 15 15 16 15 15 16 20
6 6 7 7 7 8 8 9 9 10 11 11 11 11 11 11 12 12 13 18 17 14 15 15 15 21 15 12 13 14 13 14 17 17 17 16 16 14
6 7 7 7 8 8 8 9 9 10 11 10 11 11 11 11 13 15 14 14 14 14 16 15 15 14 12 14 16 17 18 17 18 22 21 19 13 9
7 8 8 8 8 7 8 9 10 11 10 11 11 11 12 12 13 13 14 14 14 15 15 15 14 13 13 13 15 16 19 19 15 14 14 17 20 22
Wind_Direction
134 137 135 140 135 144 150 158 180 250 271 264 279 278 327 324 316 315 313 311 306 304 303 302 300 299 298 296 295 293 292 292 291 289 287 284 281 279
134 142 143 145 146 157 167 175 180 199 244 248 247 273 299 305 309 314 305 306 306 303 300 300 299 298 296 296 295 294 294 293 291 289 287 285 283 281
136 156 173 169 178 191 191 194 204 201 249 264 247 271 282 286 298 297 298 295 293 299 300 299 298 297 297 296 295 294 293 292 291 290 289 288 286 284
136 149 194 204 212 214 213 223 229 225 239 273 274 271 270 279 283 287 299 297 294 297 298 298 298 297 296 295 294 293 293 294 293 292 290 287 285 283
94 148 253 237 241 238 235 238 242 249 241 265 283 274 273 281 286 287 286 284 290 295 297 297 296 295 295 295 295 296 296 294 292 290 287 284 282 279
42 317 269 247 245 245 245 245 248 255 260 268 281 286 283 282 282 291 299 284 287 292 291 290 291 294 294 294 294 294 293 291 289 287 285 282 281 279
341 305 287 273 264 261 258 248 243 249 260 269 283 293 296 299 297 296 300 299 287 280 279 278 282 279 282 286 290 290 288 287 286 286 285 284 282 280
309 306 300 291 293 300 298 295 289 281 280 277 285 292 295 293 294 295 297 302 300 266 280 291 285 284 280 277 285 288 288 288 287 287 286 283 281 278
314 316 321 322 328 305 295 297 295 295 295 294 291 288 290 290 290 290 288 290 294 295 297 294 288 287 283 285 289 289 289 288 287 286 284 282 280 279
310 304 299 299 304 298 276 274 269 278 284 284 273 275 277 277 275 285 293 295 289 284 278 286 289 287 287 280 287 286 286 287 287 287 287 286 284 281
285 289 303 294 305 309 305 292 285 281 291 292 291 292 295 299 302 301 297 298 298 295 277 270 283 292 289 280 277 281 285 288 289 289 287 285 282 280
286 291 311 315 311 313 306 295 294 290 286 291 295 297 295 293 297 288 278 287 292 295 257 256 286 307 298 257 253 268 279 285 286 286 285 284 282 280
301 301 301 317 314 314 315 306 300 305 309 310 305 299 297 291 288 275 264 273 284 282 280 286 286 281 278 287 277 269 274 278 282 282 283 282 279 276
303 293 295 311 315 319 320 311 312 321 323 310 303 300 299 299 298 294 284 275 269 273 278 279 280 282 284 286 290 286 277 276 278 280 276 278 278 276
297 307 311 316 323 324 315 317 323 320 306 302 301 298 293 288 293 295 292 284 279 275 272 265 266 273 274 278 282 288 293 290 279 272 270 266 267 270
298 307 321 326 325 319 317 317 309 298 303 299 300 300 301 298 297 296 299 304 302 297 278 256 255 261 272 274 278 282 282 279 277 276 277 278 272 264
325 350 336 324 322 318 314 309 307 311 310 304 303 304 305 303 301 300 290 296 294 297 303 301 270 257 259 268 276 276 277 278 276 277 280 281 275 264
353 335 324 320 318 318 318 317 315 311 308 307 303 300 300 301 301 300 293 295 295 295 295 299 304 303 293 265 243 261 270 275 279 278 277 282 283 272
343 315 310 308 308 308 307 307 307 306 303 301 299 299 299 299 299 300 301 299 297 295 294 295 297 300 304 307 275 236 260 281 286 284 279 276 280 281
317 305 304 305 305 305 305 305 304 306 305 303 300 299 298 299 299 299 299 298 299 300 300 298 295 295 296 298 299 292 274 274 284 287 286 281 277 277
314 306 301 300 300 300 300 300 300 301 301 301 300 298 299 299 299 298 298 299 301 300 301 302 298 300 298 294 293 295 294 281 280 285 290 290 289 286
308 305 302 298 299 299 299 299 300 300 300 299 298 299 299 298 297 298 298 299 300 299 300 301 302 304 303 302 301 302 304 306 301 295 287 281 285 288
306 304 301 300 297 296 296 296 296 297 296 296 297 298 299 299 298 297 298 299 302 304 308 310 311 310 308 305 305 306 307 311 313 313 306 295 290 285
Height
1495 1495 1495 1494 1493 1493 1491 1490 1489 1484 1480 1479 1479 1477 1474 1471 1467 1463 1459 1455 1452 1449 1446 1443 1440 1437 1435 1433 1431 1429 1427 1425 1423 1421 1420 1418 1417 1416
1491 1491 1491 1490 1489 1488 1486 1485 1482 1480 1475 1472 1472 1470 1467 1463 1460 1455 1451 1447 1444 1440 1437 1434 1432 1429 1427 1425 1422 1420 1418 1416 1414 1412 1410 1409 1407 1406
1487 1487 1487 1486 1485 1483 1481 1479 1477 1474 1469 1465 1464 1462 1459 1455 1451 1447 1443 1439 1435 1432 1429 1426 1424 1421 1418 1416 1413 1411 1408 1406 1404 1402 1400 1398 1396 1395
1483 1483 1482 1481 1480 1478 1476 1474 1471 1468 1464 1458 1455 1453 1451 1447 1443 1439 1435 1431 1428 1424 1421 1418 1415 1412 1409 1407 1404 1402 1399 1396 1393 1391 1389 1387 1386 1384
1479 1478 1477 1476 1475 1473 1470 1468 1465 1462 1458 1453 1448 1446 1443 1440 1435 1431 1427 1423 1420 1416 1413 1409 1406 1403 1401 1398 1395 1392 1388 1385 1382 1380 1377 1376 1374 1373
1474 1473 1472 1471 1470 1467 1465 1462 1459 1455 1452 1448 1443 1439 1436 1432 1428 1423 1417 1414 1411 1408 1405 1401 1398 1395 1392 1389 1385 1381 1378 1375 1372 1369 1367 1366 1364 1363
1469 1468 1467 1466 1464 1462 1459 1456 1453 1449 1446 1442 1437 1433 1429 1426 1422 1417 1412 1406 1402 1400 1395 1392 1389 1384 1382 1379 1375 1371 1367 1364 1362 1359 1357 1355 1354 1352
1465 1464 1463 1461 1458 1456 1453 1451 1448 1445 1440 1437 1432 1428 1423 1420 1416 1411 1406 1400 1394 1392 1388 1382 1381 1375 1372 1369 1365 1361 1357 1354 1351 1348 1346 1343 1342 1340
1461 1460 1458 1455 1452 1449 1447 1444 1441 1438 1436 1433 1427 1422 1418 1414 1410 1405 1401 1396 1390 1386 1382 1372 1371 1366 1363 1358 1355 1351 1347 1343 1340 1337 1334 1332 1330 1329
1457 1454 1452 1449 1446 1443 1440 1437 1434 1432 1429 1425 1421 1416 1413 1409 1406 1401 1396 1389 1383 1379 1376 1366 1361 1356 1351 1347 1345 1341 1337 1334 1330 1326 1324 1321 1318 1316
1452 1450 1446 1443 1440 1437 1435 1431 1428 1425 1422 1418 1415 1411 1408 1404 1400 1395 1389 1382 1374 1369 1368 1361 1352 1346 1339 1335 1333 1331 1327 1324 1320 1316 1312 1309 1307 1305
1447 1445 1441 1438 1435 1433 1430 1426 1421 1417 1414 1410 1407 1403 1400 1397 1393 1389 1383 1377 1369 1361 1357 1354 1346 1341 1328 1320 1320 1319 1315 1312 1309 1305 1301 1298 1295 1293
1441 1439 1436 1432 1430 1427 1424 1420 1416 1413 1408 1404 1400 1396 1393 1390 1386 1382 1378 1372 1365 1357 1353 1349 1341 1335 1330 1316 1309 1308 1306 1301 1297 1293 1290 1287 1285 1283
1437 1434 1430 1428 1425 1422 1418 1414 1411 1407 1403 1399 1395 1391 1387 1383 1379 1375 1370 1365 1359 1352 1346 1342 1335 1329 1322 1313 1303 1297 1295 1292 1287 1282 1279 1277 1275 1273
1432 1429 1427 1424 1420 1416 1413 1410 1406 1402 1398 1394 1390 1385 1381 1377 1372 1367 1361 1356 1350 1346 1340 1335 1328 1322 1316 1308 1298 1291 1284 1280 1277 1273 1269 1266 1262 1260
1428 1425 1422 1419 1415 1412 1409 1406 1402 1399 1394 1390 1385 1380 1376 1371 1365 1360 1353 1347 1339 1334 1332 1327 1321 1315 1307 1301 1294 1284 1278 1272 1267 1264 1259 1253 1250 1248
1424 1421 1417 1414 1411 1407 1404 1401 1398 1395 1391 1386 1381 1375 1370 1365 1359 1354 1347 1341 1334 1326 1320 1317 1313 1307 1300 1294 1285 1277 1270 1264 1259 1254 1248 1241 1237 1236
1420 1417 1414 1410 1407 1403 1400 1397 1394 1391 1386 1382 1377 1371 1365 1359 1353 1348 1342 1336 1328 1321 1314 1308 1302 1295 1288 1282 1279 1270 1262 1255 1249 1245 1240 1233 1224 1223
1417 1414 1410 1407 1404 1401 1397 1394 1390 1387 1382 1378 1372 1367 1361 1355 1349 1342 1336 1330 1323 1316 1309 1303 1297 1290 1282 1271 1265 1263 1256 1247 1241 1235 1230 1224 1216 1209
1414 1411 1408 1405 1402 1398 1395 1391 1387 1383 1379 1374 1369 1363 1357 1351 1344 1337 1331 1325 1318 1310 1303 1298 1292 1287 1280 1271 1259 1251 1249 1242 1234 1226 1219 1213 1206 1201
1411 1409 1406 1403 1399 1396 1392 1388 1384 1380 1375 1370 1365 1359 1353 1347 1340 1333 1327 1321 1314 1307 1299 1292 1287 1282 1274 1265 1256 1245 1239 1234 1228 1220 1211 1204 1197 1191
1409 1406 1404 1401 1397 1394 1390 1386 1381 1377 1372 1367 1362 1356 1350 1344 1337 1330 1324 1317 1310 1304 1296 1288 1281 1275 1268 1261 1251 1240 1230 1224 1218 1212 1205 1198 1192 1184
1407 1404 1401 1398 1395 1391 1387 1383 1378 1374 1369 1364 1358 1353 1346 1340 1334 1327 1321 1314 1308 1300 1293 1284 1277 1270 1263 1255 1246 1237 1227 1218 1210 1203 1197 1191 1186 1179